#timestamp,LO_Frequency,Hit,StdDev 
1509530415.1,286046997.3,N
1509530416.0,286046997.3,N
1509530435.8,286046999.3,N
1509530455.7,286046998.8,N
1509530475.5,286047001.2,N
1509530495.3,286047002.3,N
1509530515.2,286047003.9,N
1509530535.9,286047002.4,N
1509530555.7,286046998.3,N
1509530575.6,286047002.5,N
1509530595.4,286047002.1,N
1509530615.2,286047001.1,N
1509530635.1,286047003.1,N
1509530636.0,286047003.1,N
1509530655.8,286047007.4,N
1509530675.6,286047002.2,N
1509530695.5,286047002.5,N
1509530715.3,286047002.7,N
1509530735.1,286047002.0,N
1509530755.9,286047002.7,N
1509530775.7,286047000.9,N
1509530795.5,286046998.9,N
1509530815.4,286046999.1,N
1509530835.2,286046995.8,N
1509530855.0,286046998.6,N
1509530856.0,286046998.6,N
1509530875.8,286046997.1,N
1509530895.6,286046999.7,N
1509530915.4,286047001.8,N
1509530935.3,286047004.3,N
1509530955.1,286047002.8,N
1509530975.9,286046998.3,N
1509530995.7,286047000.3,N
1509531015.5,286047001.2,N
1509531035.3,286046999.0,N
1509531055.2,286046995.4,N
1509531075.0,286046996.2,N
1509531075.9,286046996.2,N
1509531095.8,286046996.2,N
1509531115.6,286047001.1,N
1509531135.4,286047002.0,N
1509531155.3,286046999.8,N
1509531175.1,286047001.0,N
1509531176.0,286047001.0,N
1509531195.8,286047000.9,N
1509531215.7,286047002.8,N
1509531235.5,286047002.6,N
1509531255.3,286047003.4,N
1509531275.2,286047001.6,N
1509531295.9,286047001.5,N
1509531315.7,286047002.2,N
1509531335.6,286047004.2,N
1509531355.4,286047001.4,N
1509531375.2,286047003.6,N
1509531395.1,286047004.1,N
1509531396.0,286047004.1,N
1509531415.8,286047008.7,Y
1509531435.6,286047011.2,P
1509531455.5,286047014.8,N
1509531475.3,286047016.6,N
1509531495.1,286047014.0,N
1509531515.9,286047011.6,N
1509531535.7,286047010.6,N
1509531555.5,286047009.9,N
1509531575.4,286047007.8,N
1509531595.2,286047007.1,N
1509531615.0,286047007.3,N
1509531616.0,286047007.3,N
1509531635.8,286047009.3,N
1509531655.6,286047008.3,N
1509531675.5,286047007.7,N
1509531695.3,286047012.4,Y
1509531715.1,286047004.8,P
1509531735.9,286047002.9,N
1509531755.7,286047005.1,N
1509531775.5,286047001.6,N
1509531795.4,286047001.2,N
1509531815.2,286046997.2,N
1509531835.0,286046997.6,N
1509531835.9,286046997.6,N
1509531855.8,286046997.1,N
1509531875.6,286046994.9,N
1509531895.4,286047000.2,N
1509531915.3,286047003.7,N
1509531935.1,286047001.9,N
1509531955.8,286047005.1,N
1509531975.7,286047007.3,N
1509531995.5,286047009.7,N
1509532015.3,286047011.9,N
1509532035.2,286047009.1,N
1509532055.0,286047008.1,N
1509532055.9,286047008.1,N
1509532075.7,286047010.2,N
1509532095.6,286047013.9,N
1509532115.4,286047011.5,N
1509532135.2,286047013.6,N
1509532155.1,286047013.0,N
1509532156.0,286047013.0,N
1509532175.8,286047012.5,N
1509532195.6,286047011.9,N
1509532215.5,286047011.7,N
1509532235.3,286047011.2,N
1509532255.2,286047010.8,N
1509532275.9,286047009.0,N
1509532295.7,286047005.5,N
1509532315.6,286047006.0,N
1509532335.4,286047000.8,N
1509532355.2,286046997.9,N
1509532375.1,286046995.2,N
1509532376.0,286046995.2,N
1509532395.8,286046992.0,N
1509532415.6,286046989.1,N
1509532435.5,286046988.8,N
1509532455.3,286046988.3,N
1509532475.1,286046987.3,N
1509532495.9,286046990.3,N
1509532515.7,286046992.6,N
1509532535.5,286046990.9,N
1509532555.4,286046992.9,N
1509532575.2,286046989.2,N
1509532595.0,286046988.0,N
1509532595.9,286046988.0,N
1509532615.8,286046985.4,N
1509532635.6,286046985.9,N
1509532655.4,286046989.9,N
1509532675.3,286046993.5,N
1509532695.1,286046996.1,N
1509532715.9,286046987.8,N
1509532735.7,286046985.9,N
1509532755.5,286046986.0,N
1509532775.4,286046984.9,N
1509532795.2,286046982.7,N
1509532815.0,286046983.9,N
1509532815.9,286046983.9,N
1509532835.8,286046986.8,N
1509532855.6,286046984.6,N
1509532875.4,286046980.9,Y
1509532895.3,286046994.5,P
1509532915.1,286046996.0,N
1509532935.8,286046995.5,N
1509532955.7,286046995.7,N
1509532975.5,286046997.1,N
1509532995.3,286046997.9,N
1509533015.2,286046995.2,N
1509533035.0,286046996.7,N
1509533035.9,286046996.7,N
1509533055.7,286046998.3,N
1509533075.6,286046998.1,N
1509533095.4,286047002.8,N
1509533115.3,286046999.3,N
1509533135.1,286046998.2,N
1509533136.0,286046998.2,N
1509533155.8,286047001.2,N
1509533175.7,286046998.4,N
1509533195.5,286047001.1,N
1509533215.3,286047000.3,N
1509533235.2,286047002.3,N
1509533255.9,286047000.4,N
1509533275.7,286046999.7,N
1509533295.6,286047001.6,N
1509533315.4,286047003.0,N
1509533335.2,286047002.4,N
1509533355.1,286047001.0,N
1509533356.0,286047001.0,N
1509533375.8,286046999.3,N
1509533395.6,286047001.7,N
1509533415.5,286047001.9,N
1509533435.3,286047003.8,N
1509533455.1,286047005.0,N
1509533475.9,286047006.4,N
1509533495.7,286047004.7,N
1509533515.5,286047001.6,N
1509533535.4,286047000.2,N
1509533555.2,286046999.7,N
1509533575.0,286047003.7,N
1509533576.0,286047003.7,N
1509533595.8,286047002.0,N
1509533615.6,286047004.3,N
1509533635.5,286047005.5,N
1509533655.3,286047007.5,Y
1509533675.1,286047004.8,P
1509533695.9,286047003.9,N
1509533715.7,286047000.7,N
1509533735.5,286046994.3,Y
1509533755.4,286046990.5,P
1509533775.2,286046990.7,N
1509533795.0,286046993.1,N
1509533795.9,286046993.1,N
1509533815.8,286046990.3,N
1509533835.6,286046991.2,N
1509533855.5,286046988.8,N
1509533875.3,286046990.4,N
1509533895.1,286046993.6,N
1509533915.9,286046999.6,N
1509533935.7,286046998.3,N
1509533955.5,286046996.0,N
1509533975.4,286046991.8,N
1509533995.2,286046996.9,N
